User: anonymous   Login
Location: Unspecified
(0.0000°N, 0.0000°E)
Time: 10:29:38
(UTC+01:00)
Language:

CZ-2C R/B - Orbit

View from above orbital plane
View from above orbital plane
View from above satellite
View from above satellite

Ground track
Ground track

The orbit data is extracted from the following two-line orbital elements,

1 28480U 04046B   14298.51301662  .00000651  00000-0  26357-3 0  4728
2 28480 098.1077 084.5869 0142560 195.9856 206.1016 14.25359400516659
Epoch (UTC): 25 October 2014 12:18:44
Eccentricity: 0.0142560
inclination: 98.1077°
perigee height: 705 km
apogee height: 910 km
right ascension of ascending node: 84.5869°
argument of perigee: 195.9856°
revolutions per day: 14.25359400
mean anomaly at epoch: 206.1016°
orbit number at epoch: 51665

The dashed part of the orbit path shows where the satellite is in the earth's shadow,  

DLR